"SCET";"TARGET";"ELECTRON_DENSITY";"ERROR_FLAG";"ELECTRON_DENSITY_ERROR";"FREQ_FCE";"MEASURED_VALUE";"MEASURED_ITEM";"FREQ_PLASMA";"FREQ_UPPER_HYBRID";"FREQ_R_EQUALS_ZERO";"FREQ_L_EQUALS_ZERO";"ORBIT_NUMBER";"SATURN_RADIUS";"SATURN_IAU_LONGITUDE";"SATURN_SLS4_S_LONGITUDE";"SATURN_SLS4_N_LONGITUDE";"SATURN_SLS5_S_LONGITUDE";"SATURN_SLS5_N_LONGITUDE";"SATURN_LOCAL_TIME";"SATURN_KRONOGRAPHIC_LATITUDE";"SATURN_MAGNETIC_LATITUDE";"SATURN_L";"SATURN_L_OFFSET";"SATURN_SOLAR_EQUATORIAL_X";"SATURN_SOLAR_EQUATORIAL_Y";"SATURN_SOLAR_EQUATORIAL_Z";"SATURN_ALTITUDE";"ENCELADUS_ENCOUNTER_NUMBER";"ENCELADUS_RADIUS";"ENCELADUS_COROTATIONAL_X";"ENCELADUS_COROTATIONAL_Y";"ENCELADUS_COROTATIONAL_Z";"ENCELADUS_TRUE_ANOMALY";"ENCELADUS_PERIAPSIS_TIME";"JUPITER_RADIUS";"JUPITER_SYSTEMIII_LONGITUDE";"JUPITER_MAGNETIC_LATITUDE";"JUPITER_MAGNETIC_LOCAL_TIME";"JUPITER_L";"IO_PHASE";"EARTH_RADIUS";"EARTH_MAGNETIC_LATITUDE";"EARTH_LOCAL_TIME";"EARTH_L"
"[UTC]";"[0=Saturn, 1=Enceladus, 2=Jupiter, 3=Earth]";"[cm-3]";"[0=automated, 1=manual]";"[normalized density error]";"[Hz]";"[Hz]";"[0=upper hybrid frequency, 1=plasma frequency cutoff]";"[Hz]";"[Hz]";"[Hz]";"[Hz}";"[0, A, B, C, 3, 4, ... , 292, 293]";"[Rs where 1Rs=60268km]";"[degrees]";"[degrees]";"[degrees]";"[degrees]";"[degrees]";"[hours]";"[degrees]";"[degrees where offset=2293km north]";"[Rs where 1Rs=60268km]";"[Rs where 1Rs=60268km and offset=2293km north]";"[Rs where 1Rs=60268km]";"[Rs where 1Rs=60268km]";"[Rs where 1Rs=60268km]";"[km where ellipsoid a,b=60268km and c=54364km]";"[E0, E1, E2, ... , E21, E22]";"[Renc where 1Renc=252.1km]";"[Renc where 1Renc=252.1km]";"[Renc where 1Renc=252.1km]";"[Renc where 1Renc=252.1km]";"[degrees]";"[UTC]";"[Rj where 1Rj=71492km]";"[degrees]";"[degrees using JRM09 model]";"[hours using JRM09 model]";"[Rj where 1Rj=71492km]";"[degrees]";"[Re where 1Re=6378.1366km]";"[degrees]";"[hours]";"[Re where 1Re=6378.1366km]"
2015-05-10T00:00:02.207Z;0;4.6640e+01;0;     0.117;  2813.300;  61388.809; 0;  61324.312;  61388.809;  62747.094;  59933.793;215;   5.620;  79.724;;; 274.637; 228.737;  19.804;   0.186;  -0.202;   5.620;   5.614;  -2.557;   5.004;   0.018;;;;;;;;;;;;;;;;;;
2015-05-10T00:00:18.207Z;0;4.7460e+01;0;     0.108;  2813.300;  61928.598; 0;  61864.664;  61928.598;  63287.305;  60474.004;215;   5.622;  79.841;;; 274.754; 228.852;  19.806;   0.186;  -0.202;   5.622;   5.616;  -2.561;   5.005;   0.018;;;;;;;;;;;;;;;;;;
2015-05-10T00:00:34.207Z;0;4.8700e+01;0;     0.104;  2813.300;  62729.367; 0;  62666.250;  62729.367;  64088.684;  61275.387;215;   5.623;  79.958;;; 274.870; 228.967;  19.809;   0.186;  -0.202;   5.623;   5.618;  -2.564;   5.005;   0.018;;;;;;;;;;;;;;;;;;
2015-05-10T00:00:50.206Z;0;4.9010e+01;0;     0.100;  2813.300;  62926.555; 0;  62863.637;  62926.555;  64286.020;  61472.723;215;   5.625;  80.076;;; 274.986; 229.083;  19.811;   0.186;  -0.202;   5.625;   5.619;  -2.568;   5.005;   0.018;;;;;;;;;;;;;;;;;;
2015-05-10T00:01:06.206Z;0;4.8650e+01;0;     0.101;  2808.484;  62698.988; 0;  62636.055;  62698.988;  64056.039;  61247.555;215;   5.627;  80.193;;; 275.103; 229.198;  19.813;   0.186;  -0.202;   5.627;   5.621;  -2.572;   5.005;   0.018;;;;;;;;;;;;;;;;;;
2015-05-10T00:01:22.206Z;0;4.7990e+01;0;     0.108;  2808.484;  62273.172; 0;  62209.809;  62273.172;  63629.898;  60821.414;215;   5.629;  80.310;;; 275.219; 229.313;  19.815;   0.185;  -0.202;   5.629;   5.623;  -2.576;   5.005;   0.018;;;;;;;;;;;;;;;;;;
2015-05-10T00:01:38.206Z;0;4.8580e+01;0;     0.104;  2808.484;  62649.965; 0;  62586.984;  62649.965;  64006.977;  61198.492;215;   5.631;  80.427;;; 275.336; 229.429;  19.817;   0.185;  -0.202;   5.631;   5.625;  -2.579;   5.005;   0.018;;;;;;;;;;;;;;;;;;
2015-05-10T00:01:54.206Z;0;4.8810e+01;0;     0.103;  2808.484;  62803.871; 0;  62741.043;  62803.871;  64161.000;  61352.516;215;   5.632;  80.544;;; 275.452; 229.544;  19.820;   0.185;  -0.202;   5.633;   5.627;  -2.583;   5.005;   0.018;;;;;;;;;;;;;;;;;;
2015-05-10T00:02:10.206Z;0;4.8420e+01;0;     0.103;  2794.232;  62548.215; 0;  62485.770;  62548.215;  63898.504;  61104.270;215;   5.634;  80.662;;; 275.568; 229.660;  19.822;   0.185;  -0.202;   5.634;   5.629;  -2.587;   5.006;   0.018;;;;;;;;;;;;;;;;;;
2015-05-10T00:02:26.206Z;0;4.9560e+01;0;     0.104;  2794.232;  63280.285; 0;  63218.562;  63280.285;  64631.117;  61836.883;215;   5.636;  80.779;;; 275.685; 229.776;  19.824;   0.185;  -0.202;   5.636;   5.630;  -2.590;   5.006;   0.018;;;;;;;;;;;;;;;;;;
2015-05-10T00:02:42.206Z;0;4.6670e+01;0;     0.119;  2794.232;  61413.324; 0;  61349.723;  61413.324;  62762.746;  59968.516;215;   5.638;  80.896;;; 275.801; 229.892;  19.826;   0.185;  -0.202;   5.638;   5.632;  -2.594;   5.006;   0.018;;;;;;;;;;;;;;;;;;
2015-05-10T00:02:58.206Z;0;4.7080e+01;0;     0.118;  2794.232;  61678.012; 0;  61614.684;  61678.012;  63027.641;  60233.406;215;   5.640;  81.013;;; 275.918; 230.008;  19.828;   0.184;  -0.202;   5.640;   5.634;  -2.598;   5.006;   0.018;;;;;;;;;;;;;;;;;;
2015-05-10T00:03:14.205Z;0;4.8050e+01;0;     0.106;  2782.220;  62308.211; 0;  62246.062;  62308.211;  63652.715;  60870.496;215;   5.642;  81.131;;; 276.035; 230.124;  19.831;   0.184;  -0.202;   5.642;   5.636;  -2.602;   5.006;   0.018;;;;;;;;;;;;;;;;;;
2015-05-10T00:03:30.205Z;0;4.8020e+01;0;     0.117;  2782.220;  62288.758; 0;  62226.590;  62288.758;  63633.250;  60851.027;215;   5.643;  81.248;;; 276.151; 230.240;  19.833;   0.184;  -0.202;   5.643;   5.638;  -2.605;   5.006;   0.018;;;;;;;;;;;;;;;;;;
2015-05-10T00:03:46.205Z;0;4.5400e+01;0;     0.115;  2782.220;  60571.848; 0;  60507.918;  60571.848;  61915.016;  59132.797;215;   5.645;  81.365;;; 276.268; 230.356;  19.835;   0.184;  -0.202;   5.645;   5.639;  -2.609;   5.006;   0.018;;;;;;;;;;;;;;;;;;
2015-05-10T00:04:02.205Z;0;4.5170e+01;0;     0.108;  2781.296;  60414.387; 0;  60350.332;  60414.387;  61757.000;  58975.703;215;   5.647;  81.483;;; 276.384; 230.472;  19.837;   0.184;  -0.202;   5.647;   5.641;  -2.613;   5.006;   0.018;;;;;;;;;;;;;;;;;;
2015-05-10T00:04:18.205Z;0;4.7610e+01;0;     0.117;  2781.296;  62027.156; 0;  61964.770;  62027.156;  63371.020;  60589.723;215;   5.649;  81.600;;; 276.501; 230.589;  19.839;   0.184;  -0.202;   5.649;   5.643;  -2.616;   5.007;   0.018;;;;;;;;;;;;;;;;;;
2015-05-10T00:04:34.205Z;0;4.4970e+01;0;     0.105;  2781.296;  60286.570; 0;  60222.379;  60286.570;  61629.082;  58847.785;215;   5.651;  81.718;;; 276.618; 230.705;  19.841;   0.183;  -0.202;   5.651;   5.645;  -2.620;   5.007;   0.018;;;;;;;;;;;;;;;;;;
2015-05-10T00:04:50.205Z;0;4.6440e+01;0;     0.121;  2781.296;  61257.059; 0;  61193.887;  61257.059;  62600.332;  59819.035;215;   5.653;  81.835;;; 276.734; 230.822;  19.844;   0.183;  -0.202;   5.653;   5.647;  -2.624;   5.007;   0.018;;;;;;;;;;;;;;;;;;
2015-05-10T00:05:06.205Z;0;4.4350e+01;0;     0.121;  2761.612;  59866.031; 0;  59802.301;  59866.031;  61199.047;  58437.434;215;   5.654;  81.953;;; 276.851; 230.938;  19.846;   0.183;  -0.202;   5.654;   5.649;  -2.628;   5.007;   0.018;;;;;;;;;;;;;;;;;;
2015-05-10T00:05:22.205Z;0;4.8010e+01;0;     0.114;  2761.612;  62284.402; 0;  62223.148;  62284.402;  63619.273;  60857.660;215;   5.656;  82.070;;; 276.968; 231.055;  19.848;   0.183;  -0.202;   5.656;   5.650;  -2.631;   5.007;   0.018;;;;;;;;;;;;;;;;;;
2015-05-10T00:05:38.205Z;0;4.4120e+01;0;     0.120;  2761.612;  59712.426; 0;  59648.531;  59712.426;  61045.316;  58283.707;215;   5.658;  82.188;;; 277.084; 231.172;  19.850;   0.183;  -0.202;   5.658;   5.652;  -2.635;   5.007;   0.018;;;;;;;;;;;;;;;;;;
2015-05-10T00:05:54.204Z;0;4.7320e+01;0;     0.135;  2761.612;  61835.355; 0;  61773.656;  61835.355;  63169.895;  60408.281;215;   5.660;  82.305;;; 277.201; 231.289;  19.852;   0.183;  -0.202;   5.660;   5.654;  -2.639;   5.007;   0.018;;;;;;;;;;;;;;;;;;
2015-05-10T00:06:10.204Z;0;4.4870e+01;0;     0.121;  2763.572;  60214.254; 0;  60150.801;  60214.254;  61548.457;  58784.887;215;   5.662;  82.423;;; 277.318; 231.406;  19.855;   0.182;  -0.202;   5.662;   5.656;  -2.642;   5.007;   0.018;;;;;;;;;;;;;;;;;;
2015-05-10T00:06:26.204Z;0;4.5420e+01;0;     0.128;  2763.572;  60581.730; 0;  60518.664;  60581.730;  61916.223;  59152.652;215;   5.664;  82.540;;; 277.435; 231.523;  19.857;   0.182;  -0.203;   5.664;   5.658;  -2.646;   5.008;   0.018;;;;;;;;;;;;;;;;;;
2015-05-10T00:06:42.204Z;0;4.5470e+01;0;     0.115;  2763.572;  60619.609; 0;  60556.582;  60619.609;  61954.133;  59190.559;215;   5.665;  82.658;;; 277.551; 231.640;  19.859;   0.182;  -0.203;   5.665;   5.660;  -2.650;   5.008;   0.018;;;;;;;;;;;;;;;;;;
2015-05-10T00:06:58.204Z;0;4.4400e+01;0;     0.133;  2763.572;  59898.859; 0;  59835.074;  59898.859;  61232.812;  58469.242;215;   5.667;  82.775;;; 277.668; 231.758;  19.861;   0.182;  -0.203;   5.667;   5.661;  -2.653;   5.008;   0.018;;;;;;;;;;;;;;;;;;
2015-05-10T00:07:14.204Z;0;4.7200e+01;0;     0.110;  2752.904;  61756.293; 0;  61694.906;  61756.293;  63086.711;  60333.805;215;   5.669;  82.893;;; 277.785; 231.875;  19.863;   0.182;  -0.203;   5.669;   5.663;  -2.657;   5.008;   0.018;;;;;;;;;;;;;;;;;;
2015-05-10T00:07:30.204Z;0;4.6560e+01;0;     0.115;  2752.904;  61335.500; 0;  61273.691;  61335.500;  62665.602;  59912.695;215;   5.671;  83.011;;; 277.902; 231.993;  19.865;   0.182;  -0.203;   5.671;   5.665;  -2.661;   5.008;   0.018;;;;;;;;;;;;;;;;;;
2015-05-10T00:08:02.204Z;0;4.8450e+01;0;     0.089;  2739.100;  62568.516; 0;  62508.531;  62568.516;  63893.082;  61153.984;215;   5.675;  83.246;;; 278.136; 232.228;  19.870;   0.181;  -0.203;   5.675;   5.669;  -2.668;   5.008;   0.018;;;;;;;;;;;;;;;;;;
2015-05-10T00:08:18.204Z;0;4.4270e+01;0;     0.090;  2739.100;  59812.730; 0;  59749.980;  59812.730;  61135.223;  58396.125;215;   5.676;  83.364;;; 278.253; 232.346;  19.872;   0.181;  -0.203;   5.676;   5.671;  -2.672;   5.008;   0.018;;;;;;;;;;;;;;;;;;
2015-05-10T00:08:34.203Z;0;4.7480e+01;0;     0.090;  2739.100;  61937.629; 0;  61877.031;  61937.629;  63261.738;  60522.637;215;   5.678;  83.481;;; 278.370; 232.464;  19.874;   0.181;  -0.203;   5.678;   5.672;  -2.676;   5.008;   0.018;;;;;;;;;;;;;;;;;;
2015-05-10T00:08:50.203Z;0;4.4050e+01;0;     0.100;  2739.100;  59660.090; 0;  59597.180;  59660.090;  60982.461;  58243.363;215;   5.680;  83.599;;; 278.487; 232.582;  19.876;   0.181;  -0.203;   5.680;   5.674;  -2.679;   5.009;   0.018;;;;;;;;;;;;;;;;;;
2015-05-10T00:09:06.203Z;0;4.7750e+01;0;     0.110;  2731.008;  62111.348; 0;  62051.277;  62111.348;  63431.805;  60700.797;215;   5.682;  83.717;;; 278.604; 232.700;  19.878;   0.181;  -0.203;   5.682;   5.676;  -2.683;   5.009;   0.018;;;;;;;;;;;;;;;;;;
2015-05-10T00:09:22.203Z;0;4.4870e+01;0;     0.099;  2731.008;  60215.004; 0;  60153.039;  60215.004;  61534.043;  58803.035;215;   5.684;  83.835;;; 278.721; 232.818;  19.880;   0.180;  -0.203;   5.684;   5.678;  -2.687;   5.009;   0.018;;;;;;;;;;;;;;;;;;
2015-05-10T00:09:38.203Z;0;4.4270e+01;0;     0.106;  2731.008;  59810.453; 0;  59748.070;  59810.453;  61129.176;  58398.168;215;   5.686;  83.953;;; 278.838; 232.936;  19.883;   0.180;  -0.203;   5.686;   5.680;  -2.690;   5.009;   0.018;;;;;;;;;;;;;;;;;;
2015-05-10T00:09:54.203Z;0;4.4830e+01;0;     0.104;  2731.008;  60189.840; 0;  60127.852;  60189.840;  61508.859;  58777.852;215;   5.687;  84.070;;; 278.955; 233.054;  19.885;   0.180;  -0.203;   5.687;   5.682;  -2.694;   5.009;   0.018;;;;;;;;;;;;;;;;;;
2015-05-10T00:10:10.203Z;0;4.7880e+01;0;     0.100;  2705.472;  62195.375; 0;  62136.504;  62195.375;  63503.961;  60798.492;215;   5.689;  84.188;;; 279.072; 233.172;  19.887;   0.180;  -0.203;   5.689;   5.683;  -2.698;   5.009;   0.018;;;;;;;;;;;;;;;;;;
2015-05-10T00:10:26.203Z;0;4.7580e+01;0;     0.104;  2705.472;  62000.258; 0;  61941.199;  62000.258;  63308.707;  60603.234;215;   5.691;  84.306;;; 279.189; 233.289;  19.889;   0.180;  -0.203;   5.691;   5.685;  -2.701;   5.009;   0.018;;;;;;;;;;;;;;;;;;
2015-05-10T00:10:42.203Z;0;4.4690e+01;0;     0.098;  2705.472;  60092.516; 0;  60031.582;  60092.516;  61399.559;  58694.086;215;   5.693;  84.424;;; 279.306; 233.406;  19.891;   0.180;  -0.203;   5.693;   5.687;  -2.705;   5.009;   0.018;;;;;;;;;;;;;;;;;;
2015-05-10T00:10:58.203Z;0;4.7680e+01;0;     0.103;  2705.472;  62068.902; 0;  62009.910;  62068.902;  63377.398;  60671.930;215;   5.695;  84.542;;; 279.423; 233.523;  19.893;   0.179;  -0.203;   5.695;   5.689;  -2.709;   5.009;   0.018;;;;;;;;;;;;;;;;;;
2015-05-10T00:11:14.202Z;0;4.8440e+01;0;     0.096;  2688.084;  62558.383; 0;  62500.605;  62558.383;  63859.094;  61171.012;215;   5.697;  84.660;;; 279.541; 233.641;  19.896;   0.179;  -0.203;   5.697;   5.691;  -2.713;   5.009;   0.018;;;;;;;;;;;;;;;;;;
2015-05-10T00:11:30.202Z;0;4.3830e+01;0;     0.099;  2688.084;  59511.648; 0;  59450.910;  59511.648;  60810.141;  58122.059;215;   5.698;  84.778;;; 279.658; 233.758;  19.898;   0.179;  -0.203;   5.698;   5.693;  -2.716;   5.010;   0.018;;;;;;;;;;;;;;;;;;
2015-05-10T00:11:46.202Z;0;4.8840e+01;0;     0.093;  2688.084;  62815.574; 0;  62758.031;  62815.574;  64116.465;  61428.379;215;   5.700;  84.896;;; 279.775; 233.875;  19.900;   0.179;  -0.203;   5.700;   5.694;  -2.720;   5.010;   0.018;;;;;;;;;;;;;;;;;;
2015-05-10T00:12:02.202Z;0;4.3950e+01;0;     0.092;  2692.368;  59595.512; 0;  59534.664;  59595.512;  60896.066;  58203.699;215;   5.702;  85.014;;; 279.892; 233.992;  19.902;   0.179;  -0.203;   5.702;   5.696;  -2.724;   5.010;   0.018;;;;;;;;;;;;;;;;;;
2015-05-10T00:12:18.202Z;0;4.4630e+01;0;     0.093;  2692.368;  60054.820; 0;  59994.438;  60054.820;  61355.723;  58663.355;215;   5.704;  85.132;;; 280.009; 234.109;  19.904;   0.179;  -0.203;   5.704;   5.698;  -2.727;   5.010;   0.018;;;;;;;;;;;;;;;;;;
2015-05-10T00:12:34.202Z;0;4.7460e+01;0;     0.103;  2692.368;  61921.289; 0;  61862.730;  61921.289;  63223.559;  60531.191;215;   5.706;  85.250;;; 280.127; 234.227;  19.906;   0.178;  -0.203;   5.706;   5.700;  -2.731;   5.010;   0.018;;;;;;;;;;;;;;;;;;
2015-05-10T00:12:50.202Z;0;4.3550e+01;0;     0.097;  2692.368;  59323.191; 0;  59262.062;  59323.191;  60623.535;  57931.168;215;   5.708;  85.368;;; 280.244; 234.344;  19.908;   0.178;  -0.204;   5.708;   5.702;  -2.735;   5.010;   0.018;;;;;;;;;;;;;;;;;;
2015-05-10T00:13:06.202Z;0;4.4280e+01;0;     0.096;  2672.768;  59816.289; 0;  59756.547;  59816.289;  61107.871;  58435.102;215;   5.709;  85.486;;; 280.361; 234.461;  19.911;   0.178;  -0.204;   5.710;   5.704;  -2.738;   5.010;   0.018;;;;;;;;;;;;;;;;;;
2015-05-10T00:13:22.202Z;0;4.7260e+01;0;     0.103;  2672.768;  61792.199; 0;  61734.367;  61792.199;  63085.215;  60412.445;215;   5.711;  85.604;;; 280.479; 234.579;  19.913;   0.178;  -0.204;   5.711;   5.705;  -2.742;   5.010;   0.018;;;;;;;;;;;;;;;;;;
2015-05-10T00:13:38.202Z;0;4.4200e+01;0;     0.100;  2672.768;  59764.082; 0;  59704.285;  59764.082;  61055.625;  58382.855;215;   5.713;  85.722;;; 280.596; 234.696;  19.915;   0.178;  -0.204;   5.713;   5.707;  -2.746;   5.010;   0.018;;;;;;;;;;;;;;;;;;
2015-05-10T00:13:54.201Z;0;4.4910e+01;0;     0.098;  2672.768;  60236.965; 0;  60177.641;  60236.965;  61528.859;  58856.094;215;   5.715;  85.841;;; 280.713; 234.813;  19.917;   0.178;  -0.204;   5.715;   5.709;  -2.749;   5.010;   0.018;;;;;;;;;;;;;;;;;;
2015-05-10T00:14:10.201Z;0;4.7570e+01;0;     0.110;  2659.944;  61991.102; 0;  61934.008;  61991.102;  63278.258;  60618.312;215;   5.717;  85.959;;; 280.831; 234.931;  19.919;   0.177;  -0.204;   5.717;   5.711;  -2.753;   5.010;   0.018;;;;;;;;;;;;;;;;;;
2015-05-10T00:14:26.201Z;0;4.4470e+01;0;     0.101;  2659.944;  59941.477; 0;  59882.430;  59941.477;  61227.168;  58567.223;215;   5.719;  86.077;;; 280.948; 235.048;  19.921;   0.177;  -0.204;   5.719;   5.713;  -2.757;   5.010;   0.018;;;;;;;;;;;;;;;;;;
2015-05-10T00:14:42.201Z;0;4.3910e+01;0;     0.103;  2659.944;  59565.066; 0;  59505.645;  59565.066;  60850.477;  58190.535;215;   5.721;  86.195;;; 281.066; 235.166;  19.923;   0.177;  -0.204;   5.721;   5.715;  -2.760;   5.011;   0.018;;;;;;;;;;;;;;;;;;
2015-05-10T00:14:58.201Z;0;4.4000e+01;0;     0.104;  2659.944;  59627.211; 0;  59567.852;  59627.211;  60912.668;  58252.727;215;   5.722;  86.313;;; 281.183; 235.283;  19.925;   0.177;  -0.204;   5.722;   5.716;  -2.764;   5.011;   0.018;;;;;;;;;;;;;;;;;;
2015-05-10T00:15:14.201Z;0;4.4390e+01;0;     0.097;  2630.544;  59890.594; 0;  59832.797;  59890.594;  61162.523;  58531.980;215;   5.724;  86.432;;; 281.301; 235.401;  19.928;   0.177;  -0.204;   5.724;   5.718;  -2.768;   5.011;   0.018;;;;;;;;;;;;;;;;;;
2015-05-10T00:15:30.201Z;0;4.7400e+01;0;     0.114;  2630.544;  61882.418; 0;  61826.480;  61882.418;  63155.742;  60525.199;215;   5.726;  86.550;;; 281.418; 235.518;  19.930;   0.177;  -0.204;   5.726;   5.720;  -2.772;   5.011;   0.018;;;;;;;;;;;;;;;;;;
2015-05-10T00:15:46.201Z;0;4.8290e+01;0;     0.095;  2630.544;  62459.371; 0;  62403.953;  62459.371;  63733.082;  61102.539;215;   5.728;  86.668;;; 281.536; 235.636;  19.932;   0.176;  -0.204;   5.728;   5.722;  -2.775;   5.011;   0.018;;;;;;;;;;;;;;;;;;
2015-05-10T00:16:02.201Z;0;4.3940e+01;0;     0.099;  2638.944;  59585.418; 0;  59526.953;  59585.418;  60861.047;  58222.102;215;   5.730;  86.787;;; 281.653; 235.753;  19.934;   0.176;  -0.204;   5.730;   5.724;  -2.779;   5.011;   0.018;;;;;;;;;;;;;;;;;;
2015-05-10T00:16:18.200Z;0;4.2800e+01;0;     0.113;  2638.944;  58808.699; 0;  58749.461;  58808.699;  60083.746;  57444.805;215;   5.732;  86.905;;; 281.771; 235.871;  19.936;   0.176;  -0.204;   5.732;   5.726;  -2.783;   5.011;   0.018;;;;;;;;;;;;;;;;;;
2015-05-10T00:16:34.200Z;0;4.4930e+01;0;     0.106;  2638.944;  60249.867; 0;  60192.047;  60249.867;  61525.980;  58887.035;215;   5.733;  87.023;;; 281.888; 235.988;  19.938;   0.176;  -0.204;   5.733;   5.728;  -2.786;   5.011;   0.018;;;;;;;;;;;;;;;;;;
2015-05-10T00:16:50.200Z;0;4.3100e+01;0;     0.112;  2638.944;  59011.652; 0;  58952.617;  59011.652;  60286.855;  57647.910;215;   5.735;  87.142;;; 282.006; 236.106;  19.940;   0.176;  -0.204;   5.735;   5.729;  -2.790;   5.011;   0.018;;;;;;;;;;;;;;;;;;
2015-05-10T00:17:06.200Z;0;4.5480e+01;0;     0.118;  2603.440;  60617.105; 0;  60561.172;  60617.105;  61876.879;  59273.441;215;   5.737;  87.260;;; 282.124; 236.224;  19.942;   0.176;  -0.204;   5.737;   5.731;  -2.794;   5.011;   0.018;;;;;;;;;;;;;;;;;;
2015-05-10T00:17:22.200Z;0;4.6450e+01;0;     0.112;  2603.440;  61259.102; 0;  61203.754;  61259.102;  62519.316;  59915.875;215;   5.739;  87.379;;; 282.241; 236.341;  19.945;   0.176;  -0.204;   5.739;   5.733;  -2.797;   5.011;   0.018;;;;;;;;;;;;;;;;;;
2015-05-10T00:17:54.200Z;0;4.3550e+01;0;     0.105;  2603.440;  59320.926; 0;  59263.770;  59320.926;  60579.785;  57976.344;215;   5.743;  87.615;;; 282.477; 236.577;  19.949;   0.175;  -0.204;   5.743;   5.737;  -2.805;   5.011;   0.018;;;;;;;;;;;;;;;;;;
2015-05-10T00:18:10.200Z;0;4.4150e+01;0;     0.111;  2610.216;  59724.895; 0;  59667.828;  59724.895;  60987.207;  58376.992;215;   5.745;  87.734;;; 282.594; 236.694;  19.951;   0.175;  -0.204;   5.745;   5.739;  -2.808;   5.011;   0.018;;;;;;;;;;;;;;;;;;
2015-05-10T00:18:26.200Z;0;4.3510e+01;0;     0.117;  2610.216;  59291.508; 0;  59234.023;  59291.508;  60553.508;  57943.293;215;   5.746;  87.852;;; 282.712; 236.812;  19.953;   0.175;  -0.204;   5.746;   5.740;  -2.812;   5.012;   0.018;;;;;;;;;;;;;;;;;;
2015-05-10T00:18:42.200Z;0;4.2460e+01;0;     0.120;  2610.216;  58571.879; 0;  58513.688;  58571.879;  59833.352;  57223.133;215;   5.748;  87.971;;; 282.830; 236.930;  19.955;   0.175;  -0.204;   5.748;   5.742;  -2.816;   5.012;   0.018;;;;;;;;;;;;;;;;;;
2015-05-10T00:19:14.199Z;0;4.7370e+01;0;     0.115;  2586.388;  61858.980; 0;  61804.887;  61858.980;  63111.609;  60525.223;215;   5.752;  88.208;;; 283.065; 237.165;  19.959;   0.174;  -0.205;   5.752;   5.746;  -2.823;   5.012;   0.018;;;;;;;;;;;;;;;;;;
2015-05-10T00:19:30.199Z;0;4.3250e+01;0;     0.120;  2586.388;  59113.938; 0;  59057.328;  59113.938;  60364.680;  57778.293;215;   5.754;  88.327;;; 283.183; 237.283;  19.961;   0.174;  -0.205;   5.754;   5.748;  -2.827;   5.012;   0.017;;;;;;;;;;;;;;;;;;
2015-05-10T00:19:46.199Z;0;4.3600e+01;0;     0.115;  2586.388;  59349.996; 0;  59293.613;  59349.996;  60600.910;  58014.520;215;   5.756;  88.445;;; 283.301; 237.401;  19.963;   0.174;  -0.205;   5.756;   5.750;  -2.830;   5.012;   0.017;;;;;;;;;;;;;;;;;;
2015-05-10T00:20:02.199Z;0;4.1470e+01;0;     0.115;  2574.516;  57889.074; 0;  57831.797;  57889.074;  59133.379;  56558.863;215;   5.757;  88.564;;; 283.419; 237.519;  19.966;   0.174;  -0.205;   5.758;   5.752;  -2.834;   5.012;   0.017;;;;;;;;;;;;;;;;;;
2015-05-10T00:20:18.199Z;0;4.4750e+01;0;     0.102;  2574.516;  60128.418; 0;  60073.277;  60128.418;  61374.324;  58799.809;215;   5.759;  88.683;;; 283.537; 237.635;  19.968;   0.174;  -0.205;   5.759;   5.753;  -2.838;   5.012;   0.017;;;;;;;;;;;;;;;;;;
2015-05-10T00:20:34.199Z;0;4.4980e+01;0;     0.109;  2574.516;  60281.730; 0;  60226.730;  60281.730;  61527.742;  58953.227;215;   5.761;  88.801;;; 283.655; 237.751;  19.970;   0.174;  -0.205;   5.761;   5.755;  -2.841;   5.012;   0.017;;;;;;;;;;;;;;;;;;
2015-05-10T00:20:50.199Z;0;4.3310e+01;0;     0.098;  2574.516;  59156.254; 0;  59100.207;  59156.254;  60401.480;  57826.965;215;   5.763;  88.920;;; 283.772; 237.868;  19.972;   0.173;  -0.205;   5.763;   5.757;  -2.845;   5.012;   0.017;;;;;;;;;;;;;;;;;;
2015-05-10T00:21:06.199Z;0;4.8170e+01;0;     0.096;  2534.364;  62373.926; 0;  62322.418;  62373.926;  63602.480;  61068.117;215;   5.765;  89.039;;; 283.890; 237.984;  19.974;   0.173;  -0.205;   5.765;   5.759;  -2.849;   5.012;   0.017;;;;;;;;;;;;;;;;;;
2015-05-10T00:21:22.199Z;0;4.3880e+01;0;     0.089;  2534.364;  59536.086; 0;  59482.121;  59536.086;  60762.797;  58228.434;215;   5.767;  89.157;;; 284.008; 238.100;  19.976;   0.173;  -0.205;   5.767;   5.761;  -2.852;   5.012;   0.017;;;;;;;;;;;;;;;;;;
2015-05-10T00:21:38.198Z;0;4.7190e+01;0;     0.099;  2534.364;  61740.727; 0;  61688.688;  61740.727;  62968.883;  60434.520;215;   5.769;  89.276;;; 284.126; 238.217;  19.978;   0.173;  -0.205;   5.769;   5.763;  -2.856;   5.012;   0.017;;;;;;;;;;;;;;;;;;
2015-05-10T00:21:54.198Z;0;4.7030e+01;0;     0.117;  2534.364;  61635.184; 0;  61583.055;  61635.184;  62863.273;  60328.910;215;   5.770;  89.395;;; 284.244; 238.333;  19.980;   0.173;  -0.205;   5.771;   5.765;  -2.860;   5.012;   0.017;;;;;;;;;;;;;;;;;;
2015-05-10T00:22:10.198Z;0;4.3790e+01;0;     0.097;  2565.892;  59480.395; 0;  59425.023;  59480.395;  60721.816;  58155.926;215;   5.772;  89.514;;; 284.362; 238.449;  19.982;   0.173;  -0.205;   5.772;   5.766;  -2.863;   5.012;   0.017;;;;;;;;;;;;;;;;;;
2015-05-10T00:22:26.198Z;0;4.2170e+01;0;     0.112;  2565.892;  58373.539; 0;  58317.117;  58373.539;  59614.176;  57048.281;215;   5.774;  89.632;;; 284.480; 238.565;  19.984;   0.172;  -0.205;   5.774;   5.768;  -2.867;   5.012;   0.017;;;;;;;;;;;;;;;;;;
2015-05-10T00:22:42.198Z;0;4.2730e+01;0;     0.101;  2565.892;  58756.152; 0;  58700.098;  58756.152;  59997.062;  57431.172;215;   5.776;  89.751;;; 284.598; 238.681;  19.987;   0.172;  -0.205;   5.776;   5.770;  -2.871;   5.012;   0.017;;;;;;;;;;;;;;;;;;
2015-05-10T00:22:58.198Z;0;4.2860e+01;0;     0.104;  2565.892;  58845.211; 0;  58789.242;  58845.211;  60086.188;  57520.293;215;   5.778;  89.870;;; 284.716; 238.797;  19.989;   0.172;  -0.205;   5.778;   5.772;  -2.874;   5.012;   0.017;;;;;;;;;;;;;;;;;;
2015-05-10T00:23:14.198Z;0;4.2100e+01;0;     0.108;  2535.344;  58324.828; 0;  58269.695;  58324.828;  59551.156;  57015.812;215;   5.780;  89.989;;; 284.834; 238.913;  19.991;   0.172;  -0.205;   5.780;   5.774;  -2.878;   5.012;   0.017;;;;;;;;;;;;;;;;;;